Flag for Hungary Weather past 2 weeks in Szeged, Hungary

Now
43 °F

Light rain. Overcast.


Feels Like: 37 °F
Forecast: 41 / 66 °F
Wind: 9 mph from Northeast

Location: Szeged


UV Index: 3 (Moderate)

Visibility: 13 mi


Pressure: 29.97 "Hg

Humidity: 87%

Dew point: 39 °F

Location of SzegedLocation

Historic Weather in Szeged

°F

Szeged temperature yesterday

Maximum temperature yesterday: 56 °F (at 3:00 PM)
Minimum temperature yesterday: 35 °F (at 4:00 AM)
Average temperature yesterday: 47 °F

Past Weeks' High & Low Weather Summary

 TemperatureHumidityPressure
High72 °F (Apr 4, 5:00 PM)97% (Apr 8, 8:00 AM)30.11 "Hg (Apr 8, 8:00 AM)
Low35 °F (Apr 10, 6:00 AM)23% (Apr 2, 3:00 PM)29.75 "Hg (Apr 4, 7:00 PM)
Average53 °F65%29.97 "Hg
* Reported Apr 2 8:00 AM — Apr 17 8:00 AM, Szeged, Weather by CustomWeather, © 2014

Note: Actual official high and low records may vary slightly from our data, if they occured in-between our weather recording intervals... More about our weather records

Advertising

Historic Weather Conditions — Data for Previous 24 hours

 ConditionsComfort  
Time TempWeatherWind HumidityBarometerVisibility
8:00 AM
Apr 17
43 °FLight rain. Overcast.9 mph87%29.97 "Hg12 mi
7:00 AM44 °FLight rain. Overcast.9 mph79%29.97 "Hg19 mi
6:00 AM45 °FLight rain. Overcast.10 mph77%29.95 "Hg16 mi
5:00 AM45 °FLight rain. Overcast.10 mph73%29.96 "Hg12 mi
4:00 AM45 °FLight rain. Overcast.10 mph78%29.96 "Hg9 mi
3:00 AM44 °FLight rain. Overcast.10 mph82%29.98 "Hg9 mi
2:00 AM44 °FLight rain. Overcast.10 mph83%29.98 "Hg9 mi
1:00 AM44 °FOvercast.10 mph82%30.00 "Hg12 mi
12:00 AM46 °FOvercast.12 mph74%30.00 "Hg19 mi
11:00 PM
Apr 16
46 °FLight rain. Overcast.10 mph73%30.03 "Hg19 mi
10:00 PM47 °FOvercast.12 mph69%30.02 "Hg19 mi
9:00 PM48 °FOvercast.10 mph68%30.02 "Hg19 mi
8:00 PM47 °FRain showers. Overcast.7 mph83%30.01 "Hg3 mi
7:00 PM48 °FSprinkles. Overcast.9 mph76%30.00 "Hg5 mi
6:00 PM52 °FSprinkles. Overcast.8 mph54%29.99 "Hg25 mi
5:00 PM55 °FOvercast.13 mph41%29.98 "Hg28 mi
4:00 PM56 °FOvercast.12 mph39%29.98 "Hg31 mi
3:00 PM56 °FOvercast.10 mph35%29.99 "Hg43 mi
2:00 PM54 °FOvercast.12 mph41%29.99 "Hg43 mi
1:00 PM55 °FPartly sunny.9 mph47%30.02 "Hg47 mi
12:00 PM52 °FPartly sunny.8 mph53%30.05 "Hg43 mi
11:00 AM50 °FPartly sunny.9 mph60%30.05 "Hg37 mi
10:00 AM48 °FPartly sunny.8 mph66%30.05 "Hg37 mi
9:00 AM47 °FPassing clouds.7 mph67%30.05 "Hg31 mi
Weather by CustomWeather, © 2014

See weather overview